Weather in Rayakoski

Russia / Murmansk Oblast     69°01′15″N   29°00′26″E
В апреле 2022 года жителям России запретили посещать сайт meteo.paraplan.net по решению Генеральной прокуратуры. Аудитория сайта уменьшилась в 10 раз. Владельцы сайта не видят смысла в поддержке погодного сервера в таких условиях. Сайт будет закрыт в октябре.
temp.,
°C
wind,
m/s
gust,
m/s
humid.,
%
clouds,
%
prec.,
mm/h
press.,
hPa
HPBL,
m
3 october, mon
mon300:00+3s2398100 0.4 1007106
03:00+4sw229887 0.9 100775
06:00+4wsw119798 0.0 100829
09:00+4wnw139251 0.0 100993
12:00+6wnw23805 0.0 1011420
15:00+6wnw23745 0.0 1013520
18:00+3wnw018959 0.0 101410
21:00+2sse119072 0.0 101510
4 october, tue
tue400:00+2se1191100 0.0 101610
03:00+2ese1191100 0.0 101610
06:00+1ese119162 0.0 101612
09:00+2ese1288100 0.0 101632
12:00+5ese2480100 0.0 1016224
15:00+5ese2482100 0.0 1015266
18:00+3se2293100 0.0 101451
21:00+2se2495100 0.0 101385
5 october, wed
wed500:00+3sse1294100 0.0 101241
03:00+4se2494100 0.0 1011115
06:00+3sse3793100 0.0 1010348
09:00+4sse4789100 0.0 1009646
12:00+4sse3796100 0.0 1009451
15:00+5sse389485 0.0 1008420
18:00+5sse3792100 0.0 1007271
21:00+5sse389398 0.0 1006304
6 october, thu
thu600:00+5sse41088100 0.4 1004501
03:00+3sse399613 0.4 1002223
06:00+6se5139292 0.0 998539
09:00+6sse71686100 0.0 9931021
12:00+7sse91882100 0.3 9881089
15:00+7sse91888100 1.9 9821087
18:00+7sse71387100 0.6 979862
21:00+8s71376100 0.6 9781235
7 october, fri
fri700:00+6s71492100 0.5 9761376
03:00+7ssw7128144 0.9 9761048
06:00+6sw6138234 0.0 978851
09:00+6wsw71380100 0.0 981641
12:00+8wsw4117517 0.0 984850
15:00+8wsw6116520 0.0 987860
18:00+6sw5127821 0.0 989531
21:00+4ssw411854 0.0 989388